Temp
-7 -7 -7 -7 -7 -7 -7 -7 -7 -6 -6 -6 -6 -6 -6 -6 -6 -6 -6 -6 -6 -6 -6 -6 -6 -6 -6 -6 -6 -6 -6 -6 -6 -6 -6 -6 -6 -6 -7 -7 -7 -7
-7 -7 -7 -7 -7 -7 -7 -7 -7 -7 -6 -6 -6 -6 -6 -6 -6 -6 -6 -6 -6 -6 -6 -6 -6 -6 -6 -6 -6 -6 -6 -6 -6 -6 -6 -6 -6 -6 -7 -7 -7 -7
-7 -7 -7 -7 -7 -7 -7 -7 -7 -7 -7 -7 -6 -6 -6 -6 -6 -6 -6 -6 -6 -6 -6 -6 -6 -6 -6 -6 -6 -6 -6 -6 -6 -6 -6 -6 -6 -7 -7 -7 -7 -7
-7 -7 -7 -7 -7 -7 -7 -7 -7 -7 -7 -7 -7 -6 -6 -6 -6 -6 -6 -6 -6 -6 -6 -6 -6 -6 -5 -6 -6 -6 -6 -6 -6 -6 -6 -6 -6 -6 -6 -7 -7 -7
-7 -7 -7 -7 -7 -6 -6 -7 -7 -7 -7 -7 -7 -7 -7 -6 -6 -6 -6 -6 -6 -5 -5 -6 -6 -5 -5 -5 -5 -6 -6 -6 -6 -6 -6 -6 -6 -6 -6 -6 -6 -7
-7 -7 -7 -7 -7 -6 -6 -6 -7 -7 -7 -7 -7 -7 -7 -7 -7 -6 -6 -6 -6 -6 -6 -6 -6 -6 -6 -6 -6 -6 -6 -6 -6 -6 -6 -6 -6 -6 -7 -7 -7 -7
-7 -7 -7 -7 -7 -7 -7 -7 -7 -7 -7 -7 -7 -7 -7 -7 -7 -7 -7 -6 -6 -6 -6 -6 -6 -6 -6 -6 -6 -6 -6 -6 -6 -6 -6 -6 -6 -6 -7 -7 -7 -7
-6 -7 -7 -7 -7 -7 -7 -7 -7 -7 -7 -7 -7 -7 -7 -7 -7 -7 -7 -7 -6 -6 -6 -6 -6 -6 -6 -6 -6 -6 -6 -6 -6 -6 -6 -6 -6 -6 -6 -6 -6 -6
-6 -7 -7 -7 -7 -7 -7 -7 -7 -7 -7 -7 -7 -7 -7 -7 -7 -7 -7 -7 -7 -6 -6 -6 -6 -6 -6 -6 -6 -6 -6 -6 -6 -6 -6 -6 -6 -6 -6 -6 -6 -6
-7 -6 -7 -7 -7 -7 -7 -7 -7 -7 -7 -7 -7 -7 -7 -7 -7 -7 -7 -7 -7 -6 -6 -7 -7 -7 -7 -7 -6 -6 -6 -6 -6 -6 -6 -6 -6 -6 -6 -6 -6 -6
-7 -7 -7 -7 -7 -7 -7 -7 -7 -7 -7 -7 -7 -7 -7 -7 -7 -6 -6 -6 -6 -6 -7 -7 -7 -7 -7 -7 -7 -7 -6 -6 -6 -6 -6 -6 -6 -6 -6 -6 -6 -6
-7 -7 -6 -6 -7 -7 -7 -7 -7 -7 -7 -7 -7 -7 -7 -7 -7 -6 -6 -6 -6 -6 -6 -6 -6 -6 -7 -7 -7 -7 -6 -6 -6 -6 -6 -6 -6 -6 -6 -6 -6 -6
-7 -6 -6 -6 -6 -7 -7 -7 -7 -7 -7 -7 -7 -7 -7 -7 -7 -7 -7 -6 -6 -6 -6 -6 -6 -6 -6 -7 -7 -7 -7 -6 -6 -6 -6 -6 -6 -6 -6 -6 -6 -7
-6 -6 -6 -6 -6 -7 -7 -7 -7 -7 -7 -7 -7 -7 -7 -7 -7 -7 -7 -7 -7 -7 -7 -7 -7 -7 -7 -7 -7 -7 -7 -7 -7 -6 -6 -6 -6 -6 -6 -6 -7 -7
-6 -6 -7 -7 -7 -7 -7 -7 -7 -7 -6 -6 -6 -7 -7 -7 -7 -7 -7 -7 -7 -7 -7 -7 -7 -7 -7 -7 -7 -7 -7 -7 -6 -6 -6 -6 -6 -6 -6 -6 -7 -7
-6 -6 -7 -7 -7 -7 -7 -7 -7 -7 -6 -6 -6 -7 -7 -7 -7 -7 -7 -7 -7 -7 -7 -7 -7 -7 -7 -7 -7 -7 -7 -7 -6 -6 -6 -6 -6 -6 -6 -6 -7 -7
-7 -6 -6 -7 -7 -7 -7 -7 -7 -6 -6 -7 -7 -7 -7 -7 -7 -7 -7 -7 -7 -7 -7 -7 -7 -7 -7 -7 -7 -7 -7 -7 -6 -6 -6 -6 -6 -6 -6 -7 -7 -7
-6 -6 -6 -6 -6 -6 -6 -6 -6 -6 -6 -6 -6 -7 -7 -7 -7 -7 -7 -7 -7 -7 -7 -8 -7 -7 -7 -7 -7 -7 -7 -7 -6 -6 -6 -7 -7 -7 -7 -7 -7 -7
-6 -6 -6 -6 -6 -6 -6 -6 -6 -6 -6 -6 -6 -6 -6 -6 -6 -7 -7 -7 -7 -7 -7 -7 -7 -7 -7 -7 -7 -7 -7 -7 -7 -7 -7 -7 -7 -7 -7 -7 -7 -7
-7 -7 -6 -7 -7 -6 -6 -6 -7 -7 -7 -7 -7 -7 -7 -7 -7 -7 -7 -7 -7 -7 -7 -7 -7 -7 -7 -7 -7 -7 -7 -7 -7 -7 -7 -7 -7 -7 -7 -7 -7 -7
-7 -7 -7 -7 -7 -7 -7 -7 -7 -7 -7 -7 -7 -7 -7 -7 -7 -7 -7 -7 -7 -7 -7 -7 -7 -7 -7 -7 -7 -7 -6 -6 -7 -7 -7 -7 -7 -7 -7 -7 -7 -7
-7 -7 -7 -7 -7 -7 -7 -7 -7 -7 -7 -7 -7 -7 -7 -7 -7 -7 -7 -7 -7 -7 -7 -7 -7 -7 -7 -7 -7 -7 -6 -6 -7 -7 -7 -7 -7 -7 -7 -7 -7 -7
-7 -7 -7 -7 -7 -7 -7 -7 -7 -7 -7 -7 -7 -7 -7 -7 -7 -7 -7 -7 -7 -7 -8 -8 -8 -8 -7 -7 -7 -7 -7 -7 -7 -7 -7 -7 -7 -7 -7 -7 -7 -7
-7 -7 -7 -7 -6 -6 -7 -7 -7 -7 -7 -7 -7 -7 -7 -7 -7 -7 -7 -7 -7 -7 -8 -8 -8 -8 -8 -7 -7 -7 -7 -7 -7 -7 -7 -7 -7 -7 -7 -7 -7 -7
-7 -7 -7 -7 -6 -7 -7 -7 -7 -7 -7 -7 -7 -7 -7 -7 -7 -7 -7 -7 -7 -7 -7 -7 -8 -8 -8 -7 -7 -7 -7 -7 -7 -7 -7 -7 -7 -7 -7 -7 -7 -7
-8 -8 -7 -6 -6 -7 -8 -8 -7 -7 -7 -7 -7 -7 -7 -7 -7 -7 -7 -7 -7 -7 -7 -7 -7 -7 -7 -7 -7 -7 -7 -7 -7 -7 -7 -7 -7 -7 -8 -8 -8 -8
Height
5940 5940 5941 5942 5942 5943 5943 5944 5945 5945 5946 5947 5948 5948 5949 5950 5951 5952 5952 5953 5954 5955 5955 5956 5957 5958 5959 5959 5960 5961 5962 5962 5963 5963 5963 5964 5964 5964 5964 5964 5964 5964
5939 5940 5941 5942 5942 5943 5944 5945 5945 5946 5946 5947 5948 5949 5950 5951 5951 5952 5953 5954 5954 5955 5956 5957 5958 5959 5959 5960 5961 5961 5962 5963 5963 5963 5963 5964 5964 5964 5964 5964 5964 5964
5939 5940 5940 5941 5942 5943 5944 5945 5945 5946 5947 5947 5949 5949 5951 5951 5952 5952 5953 5954 5955 5956 5957 5957 5958 5959 5960 5961 5961 5962 5962 5963 5963 5963 5963 5963 5963 5963 5964 5964 5964 5964
5939 5939 5940 5940 5941 5942 5944 5944 5945 5946 5947 5948 5948 5949 5950 5951 5952 5953 5953 5954 5955 5956 5957 5958 5958 5959 5960 5960 5961 5961 5962 5962 5962 5963 5963 5963 5963 5963 5963 5963 5963 5963
5939 5939 5939 5940 5941 5942 5943 5944 5945 5946 5947 5947 5948 5949 5950 5951 5951 5952 5953 5954 5954 5955 5956 5957 5958 5959 5959 5960 5960 5960 5961 5961 5961 5962 5962 5962 5962 5962 5962 5962 5962 5962
5939 5939 5939 5940 5941 5941 5942 5943 5944 5945 5946 5947 5948 5949 5950 5950 5951 5952 5952 5953 5954 5955 5955 5956 5957 5958 5958 5959 5959 5959 5960 5960 5960 5961 5961 5961 5961 5961 5961 5961 5961 5961
5938 5939 5940 5940 5941 5941 5942 5943 5944 5944 5945 5946 5947 5948 5949 5950 5951 5951 5952 5952 5953 5954 5955 5955 5956 5957 5957 5958 5958 5959 5959 5959 5959 5960 5960 5960 5960 5960 5960 5960 5960 5960
5936 5938 5939 5940 5941 5941 5942 5942 5943 5944 5945 5946 5946 5947 5948 5949 5950 5951 5951 5952 5952 5953 5954 5955 5955 5956 5956 5957 5957 5957 5958 5958 5958 5958 5959 5959 5959 5959 5959 5958 5958 5958
5934 5936 5938 5939 5940 5941 5941 5942 5942 5943 5944 5945 5945 5946 5947 5948 5949 5949 5950 5951 5952 5952 5953 5954 5954 5955 5955 5955 5956 5956 5956 5956 5957 5957 5957 5957 5957 5957 5957 5957 5957 5957
5932 5934 5936 5937 5938 5939 5940 5941 5941 5942 5943 5944 5944 5945 5946 5947 5948 5948 5949 5950 5950 5951 5952 5952 5953 5953 5954 5954 5954 5954 5955 5955 5955 5955 5955 5955 5955 5956 5956 5956 5956 5956
5930 5932 5933 5935 5936 5937 5938 5939 5940 5941 5942 5942 5943 5944 5945 5946 5946 5947 5948 5948 5949 5950 5950 5951 5951 5952 5952 5952 5953 5953 5953 5953 5953 5953 5953 5954 5954 5954 5954 5954 5954 5955
5928 5929 5931 5932 5933 5934 5936 5937 5938 5939 5940 5941 5941 5942 5943 5944 5944 5945 5946 5946 5947 5948 5948 5949 5950 5950 5950 5951 5951 5951 5951 5951 5952 5952 5952 5952 5952 5952 5952 5952 5953 5953
5926 5927 5928 5929 5930 5932 5933 5935 5936 5937 5938 5939 5939 5940 5941 5942 5942 5943 5944 5944 5945 5945 5946 5947 5947 5948 5948 5948 5949 5949 5949 5950 5950 5950 5950 5950 5950 5951 5951 5951 5951 5952
5925 5926 5926 5927 5928 5929 5931 5933 5934 5935 5936 5937 5938 5938 5939 5940 5941 5941 5942 5943 5943 5943 5944 5944 5945 5945 5945 5945 5946 5947 5947 5948 5948 5948 5949 5949 5949 5949 5949 5950 5950 5950
5924 5924 5925 5925 5926 5928 5929 5930 5932 5933 5934 5935 5936 5937 5937 5938 5939 5940 5940 5941 5941 5942 5942 5943 5943 5943 5943 5944 5944 5944 5945 5945 5946 5946 5947 5947 5947 5948 5948 5948 5949 5949
5922 5922 5922 5924 5925 5926 5926 5927 5928 5930 5931 5932 5933 5934 5935 5935 5936 5937 5938 5939 5939 5940 5940 5941 5942 5942 5942 5942 5942 5942 5943 5943 5943 5944 5944 5945 5945 5946 5946 5947 5947 5947
5918 5919 5920 5921 5922 5923 5924 5925 5926 5927 5928 5929 5929 5930 5931 5932 5933 5934 5935 5936 5936 5937 5938 5939 5939 5939 5939 5940 5940 5940 5940 5941 5941 5941 5941 5942 5943 5944 5944 5944 5945 5944
5914 5915 5916 5918 5919 5921 5922 5923 5924 5924 5925 5925 5925 5926 5927 5929 5930 5931 5931 5932 5933 5934 5934 5934 5935 5935 5936 5937 5937 5937 5938 5938 5939 5939 5940 5941 5942 5942 5941 5941 5942 5942
5910 5911 5912 5914 5916 5917 5918 5919 5920 5921 5922 5922 5923 5924 5925 5926 5927 5928 5929 5930 5930 5931 5931 5930 5931 5932 5933 5933 5933 5934 5935 5935 5936 5937 5938 5939 5939 5939 5938 5938 5939 5939
5906 5907 5909 5911 5913 5914 5915 5915 5916 5917 5918 5919 5919 5921 5923 5924 5924 5925 5926 5927 5927 5928 5928 5928 5928 5929 5930 5930 5930 5931 5931 5932 5934 5935 5935 5936 5935 5935 5935 5935 5935 5935
5903 5904 5906 5908 5910 5911 5911 5912 5912 5913 5914 5915 5916 5917 5919 5920 5921 5921 5922 5923 5924 5924 5925 5925 5925 5926 5926 5927 5927 5928 5928 5929 5930 5930 5931 5932 5933 5933 5932 5932 5932 5932
5899 5900 5902 5904 5905 5906 5906 5907 5908 5909 5910 5911 5912 5913 5914 5915 5916 5917 5918 5919 5920 5920 5921 5922 5922 5922 5922 5923 5924 5924 5925 5926 5927 5927 5927 5928 5929 5929 5929 5928 5928 5928
5895 5897 5898 5899 5900 5900 5900 5901 5904 5906 5907 5908 5909 5910 5910 5911 5912 5913 5913 5914 5915 5916 5917 5918 5918 5918 5918 5919 5920 5920 5921 5922 5923 5924 5924 5924 5925 5925 5925 5925 5925 5924
5892 5893 5894 5895 5895 5894 5896 5898 5901 5903 5904 5905 5906 5907 5906 5907 5908 5909 5910 5910 5911 5912 5913 5913 5914 5914 5915 5915 5916 5916 5917 5918 5919 5919 5920 5920 5921 5921 5921 5921 5921 5920
5888 5889 5890 5890 5890 5892 5894 5896 5898 5900 5900 5901 5901 5902 5903 5903 5904 5906 5906 5907 5908 5908 5909 5909 5910 5911 5911 5911 5912 5913 5914 5914 5915 5915 5916 5916 5917 5917 5917 5917 5916 5915
5883 5885 5886 5886 5887 5889 5891 5892 5894 5895 5895 5895 5897 5899 5900 5900 5901 5902 5903 5904 5904 5904 5905 5905 5906 5907 5908 5908 5909 5909 5910 5910 5911 5911 5912 5912 5912 5912 5912 5912 5912 5911
Wind_Speed
11 10 10 10 10 10 10 11 11 11 11 11 11 11 11 11 11 11 11 11 12 12 13 13 14 14 14 13 13 12 11 10 8 7 6 5 4 3 3 3 3 2
12 11 11 10 11 11 10 10 11 11 11 11 11 11 11 11 11 11 11 11 11 12 12 12 12 12 12 12 11 10 9 8 7 6 4 4 3 3 3 3 3 2
11 12 12 11 11 11 11 11 11 11 11 11 11 11 11 11 11 11 11 11 11 11 11 11 12 11 10 10 9 8 7 6 5 4 4 4 4 4 4 4 4 3
11 12 12 12 12 12 12 12 12 12 12 12 12 11 11 11 11 11 12 12 12 11 11 11 11 10 9 9 8 7 6 5 5 5 5 5 6 6 5 5 5 4
11 11 12 12 13 12 12 12 12 13 12 12 12 12 12 12 12 12 12 12 12 12 11 11 10 10 9 8 8 7 7 7 7 7 7 7 7 6 6 6 6 5
12 12 12 12 12 12 12 12 12 12 12 12 12 12 12 12 13 13 13 13 12 12 12 11 11 10 10 9 9 9 9 9 8 8 8 8 8 7 6 6 6 6
13 13 12 12 12 12 12 12 12 12 12 12 12 12 12 12 12 12 13 13 13 13 13 12 12 12 11 11 11 11 10 10 10 9 9 9 8 8 7 7 6 6
14 14 13 13 13 13 13 13 13 12 12 13 13 13 13 13 13 12 13 13 13 13 13 13 13 13 12 12 12 12 11 11 11 10 10 10 9 9 8 7 7 7
15 15 15 14 14 14 14 14 14 14 14 14 14 14 14 14 14 14 14 14 14 13 13 13 12 12 13 13 13 13 12 12 11 11 10 10 10 9 8 8 8 8
17 16 15 15 15 15 15 16 16 15 15 15 15 15 15 15 15 15 15 15 14 14 14 13 13 13 13 13 13 13 13 13 12 12 11 10 9 9 9 9 9 9
19 18 17 16 16 16 16 17 17 16 16 16 16 16 15 15 16 16 15 15 15 15 14 14 14 14 14 14 14 14 13 13 12 12 11 11 10 10 10 9 9 9
21 20 19 18 18 17 17 17 17 17 17 16 16 16 16 16 15 15 15 15 15 15 15 15 14 14 14 14 14 14 13 12 12 12 12 11 11 10 10 10 10 10
22 21 21 20 20 19 18 18 18 17 18 17 17 17 16 16 16 15 15 14 14 14 14 14 14 14 14 13 13 13 13 12 12 12 12 12 12 11 11 10 10 11
21 21 21 21 20 20 19 19 18 18 18 18 18 17 17 17 16 16 15 14 14 14 13 13 13 13 14 14 13 14 14 13 13 13 13 13 13 12 12 11 11 12
20 21 21 20 19 19 19 18 18 18 18 18 18 18 18 18 18 17 16 15 15 14 14 14 14 14 15 15 15 15 14 14 15 15 14 14 14 14 14 13 13 13
21 22 22 21 20 20 20 20 20 19 19 19 20 19 19 19 19 18 17 17 17 16 16 15 15 16 17 17 16 16 16 17 17 17 16 15 15 16 16 15 15 15
24 24 24 24 23 23 22 22 22 21 21 21 21 21 20 20 19 19 19 19 18 18 17 17 18 19 19 19 19 19 19 19 19 19 18 17 16 16 17 17 17 18
27 27 27 27 26 25 25 25 24 24 23 24 25 24 23 22 21 20 20 20 19 19 20 21 22 22 21 21 22 22 22 22 21 20 19 18 18 18 19 19 19 20
29 29 29 28 27 27 27 27 26 26 26 26 27 27 25 24 23 23 22 21 21 21 22 23 23 22 22 23 23 23 24 24 23 22 20 20 21 21 21 21 21 22
29 30 29 28 28 27 27 27 27 27 27 27 27 27 26 25 25 25 24 24 23 23 23 24 24 23 23 24 24 24 24 23 23 23 22 22 23 24 24 24 24 24
30 30 29 28 27 27 27 28 28 27 26 27 28 28 27 27 27 26 26 25 25 25 25 26 26 26 26 26 26 26 25 24 23 24 24 23 25 26 26 26 26 27
30 29 29 28 29 29 29 30 29 28 27 27 28 29 29 28 28 27 27 26 25 26 26 26 27 27 27 26 27 27 26 24 23 24 24 25 25 26 26 27 28 29
31 31 30 30 31 31 32 32 30 28 27 27 27 28 30 30 29 28 27 27 27 27 27 27 27 27 28 27 27 27 26 25 24 24 24 25 25 26 27 28 29 30
28 30 30 31 32 33 32 30 28 27 27 27 26 26 29 31 31 29 28 28 28 28 28 28 28 28 29 30 29 29 28 26 26 26 26 27 27 28 29 30 31 33
27 29 30 31 31 29 27 27 27 28 29 29 27 25 25 27 28 27 28 28 28 29 30 30 31 31 32 32 31 30 28 28 28 29 30 30 30 30 30 30 32 33
30 30 31 33 31 26 24 26 27 27 28 27 25 23 22 22 23 23 24 24 25 26 27 29 30 30 31 32 31 30 29 29 30 31 31 31 32 32 31 31 32 34
Wind_Direction
156 156 155 152 148 146 143 139 136 134 133 133 133 136 139 141 142 141 142 143 143 144 147 149 150 151 151 148 146 147 146 144 145 145 149 158 168 183 177 183 204 189
162 162 162 162 160 157 156 153 150 146 141 140 140 142 145 146 146 146 146 148 147 147 150 152 153 154 154 152 149 150 152 155 157 159 171 187 201 220 222 220 233 230
169 167 168 171 172 168 166 165 162 158 155 155 153 151 152 152 151 151 151 153 153 152 154 156 156 158 158 155 155 160 166 170 177 190 208 226 235 242 245 242 244 234
176 175 175 176 179 178 177 174 171 171 171 169 165 161 160 159 158 158 159 160 160 160 162 164 165 167 168 168 171 179 188 196 210 223 234 242 247 253 256 258 260 246
184 185 184 183 184 184 184 183 181 182 182 178 175 173 173 172 170 169 168 168 169 169 170 173 176 180 184 188 193 200 210 217 223 230 238 245 253 261 267 272 274 267
189 191 190 188 189 189 189 190 189 188 190 188 186 186 186 184 182 181 179 179 180 180 180 183 187 193 198 204 209 214 221 227 232 237 243 250 257 263 267 271 274 272
193 194 193 191 191 192 191 193 193 194 197 197 196 195 195 194 194 193 192 192 191 191 192 195 198 203 208 213 218 224 230 234 240 246 251 256 262 266 266 266 268 269
197 195 196 196 194 194 192 193 195 199 202 204 204 203 202 202 203 203 204 204 204 203 204 205 208 211 215 219 224 231 236 240 245 251 255 259 264 269 269 268 267 268
201 199 199 200 199 198 197 194 195 200 203 205 207 208 208 208 209 210 212 213 213 213 214 216 218 220 223 227 230 234 238 242 247 252 255 261 266 273 278 282 283 281
208 204 201 202 202 201 201 200 199 200 201 204 206 208 210 210 212 214 216 217 219 220 221 223 225 227 230 232 235 238 241 244 248 251 255 260 266 271 277 284 288 289
213 210 207 207 207 205 204 204 205 205 204 206 207 209 211 212 213 215 217 219 221 222 224 226 229 231 234 237 240 243 246 247 250 254 258 262 267 271 274 278 282 286
215 214 212 212 213 212 210 208 208 209 210 211 211 212 213 214 215 217 218 220 222 224 226 228 232 235 238 241 246 249 251 251 254 257 261 265 267 270 273 276 280 283
216 216 215 216 217 218 218 216 214 214 216 218 219 219 218 219 220 221 222 223 225 226 228 231 235 239 243 246 249 254 256 256 257 261 264 266 267 268 271 275 280 285
216 218 218 219 220 222 223 223 223 223 224 226 227 227 227 227 228 228 228 230 230 231 233 236 239 242 244 245 248 251 256 257 259 262 265 268 269 269 271 275 280 284
217 219 221 221 221 223 225 225 227 229 231 233 234 234 234 236 237 236 236 236 237 238 241 242 243 245 246 247 249 251 254 256 258 261 264 267 271 272 274 276 279 282
220 221 223 223 222 221 223 223 224 226 228 232 236 235 236 239 241 240 241 241 242 245 247 247 248 250 251 252 254 254 255 256 257 260 262 263 266 271 274 276 277 278
223 224 225 226 225 225 226 226 226 226 225 229 233 233 234 237 238 239 239 239 241 246 249 249 249 250 251 252 254 255 256 257 257 258 259 262 264 267 269 271 272 272
226 227 228 229 231 232 233 233 234 234 232 233 235 235 234 234 236 238 237 236 235 237 240 242 242 243 247 250 253 255 257 258 258 259 260 264 266 265 265 266 266 268
228 230 231 232 233 235 237 237 238 239 240 240 242 242 241 240 240 241 242 242 240 239 241 243 243 242 245 248 251 254 256 257 259 260 260 261 263 263 263 263 263 265
229 232 233 234 234 236 238 240 240 241 243 245 247 248 247 246 246 245 245 246 246 246 247 249 250 249 248 249 251 253 255 257 261 262 261 261 263 264 265 266 266 266
232 234 236 237 239 240 242 242 242 242 243 246 249 249 247 245 245 246 246 248 249 249 250 251 253 253 253 253 254 255 256 258 259 262 264 265 266 267 269 270 271 271
233 235 236 238 240 242 243 244 244 243 243 245 248 250 250 246 243 242 243 245 246 248 250 251 253 254 255 255 256 257 259 259 258 259 263 264 265 266 269 270 271 272
234 236 236 237 240 242 243 244 245 245 244 245 247 250 251 248 244 242 243 243 243 244 246 247 250 253 254 255 256 258 260 260 259 258 260 261 263 265 268 269 270 270
235 238 237 237 239 240 241 243 245 246 246 247 250 252 251 248 246 247 249 248 246 244 244 244 247 250 253 256 257 258 259 260 260 260 261 262 264 265 267 269 270 270
232 236 235 234 236 239 242 245 247 247 247 247 249 250 249 247 246 248 250 251 250 248 247 247 247 249 252 255 257 259 260 262 264 265 265 266 266 266 265 267 269 272
228 232 234 235 238 240 242 246 248 245 242 244 247 248 247 246 245 245 248 249 251 252 252 253 253 253 253 254 256 259 262 265 267 269 269 269 270 271 271 271 270 270